Retour au catalogue

STARLINK-37841

ActifCommunicationsVLEO
NORAD 69951·PAYLOAD·🇺🇸 United States

Lancé Jul 9, 2026 depuis Cape Canaveral Space Force Station

Loading…

Prochains Passages (prochaines 24 heures)

TLE

FraisSource: CelesTrak SupGP

Époque: Sep 14, 2026, 23:32 UTC

1 69951C 26157J   26257.98104167 -.00006558  00000+0 -19377-3 0  2571
2 69951  53.1585 359.7162 0001170  84.9292 252.2618 15.34393785    10

Suivez STARLINK-37841 en temps réel avec AllMySat

Download on the App Store